sat.trackr.live / text

‹ back to catalog

HINODE (SOLAR-B)

NORAD 29479 · 2006-041A

PAYLOAD ACTIVE UNKNOWN

§ Identity

Operator
Country
JPN
Launch date
2006-09-22
Launch site
KSCUT
Launch vehicle
Mass (kg)
RCS (m²)
5.74

Purposes: science

External: N2YO · Heavens-Above · Gunter

§ Orbital elements

Epoch: 2026-09-19T21:14:40.536096Z

Period
98.04 min
Inclination
98.0550°
Eccentricity
0.0017156
Mean motion
14.68724447 rev/d
Perigee alt
653.1 km
Apogee alt
677.2 km
Semi-major
7,043.3 km
B*
6.6585e-5
RAAN
277.6475°
Arg perigee
352.2776°
Mean anomaly
7.8163°
Rev number
6,877

§ Raw data

HINODE (SOLAR-B)1 29479U 06041A   26262.88519139  .00000339  00000+0  66585-4 0  99922 29479  98.0550 277.6475 0017156 352.2776   7.8163 14.68724447 68770

JSON: /api/v1/satellites/29479 · /tle

For live sub-satellite position, see the globe view (requires WebGL).

§ Visibility from observer

Set your observer location to see the next 7 days of passes ≥ 10°. The values pass through the URL so the page stays shareable.

No JS? Fill the form by hand. The geolocation button needs JavaScript.

§ Radio — SatNOGS DB

ModeDescriptionDownlinkUplink
FM S-band telemetry 2.256 GHz

1 transmitter · refreshed weekly from db.satnogs.org